GFSMA_sfc_thetae_021.txt.gz
Theta_e
302 300 299 296 295 294 294 294 294 294 294 293 293 293 293 294 294 295 297 304 308 312 315 317 318 319 319 320 323 323 321 318 320 318 319 321 322 321 321 322 325 327 328
300 299 295 293 293 293 293 293 293 293 293 293 292 292 292 293 293 294 296 303 307 311 314 316 317 318 319 319 316 315 317 317 314 313 316 315 316 317 318 319 321 322 323
297 297 294 292 292 292 292 292 291 291 291 291 291 291 292 292 293 293 294 297 303 310 312 314 315 319 319 316 312 313 317 314 311 311 314 312 313 314 314 315 316 316 317
296 294 293 292 292 291 291 291 290 290 291 291 290 290 291 292 292 292 293 296 298 299 305 308 308 308 308 308 310 313 313 310 310 312 310 311 313 313 314 314 314 314 315
295 294 293 292 291 290 290 290 289 290 289 289 289 289 290 291 291 290 293 293 294 293 293 296 297 299 303 303 307 307 308 309 309 309 309 310 310 310 310 311 312 312 313
294 293 292 291 290 289 289 289 289 288 289 289 287 288 289 290 291 291 291 290 291 291 290 291 292 294 298 302 304 306 307 308 307 306 308 307 307 308 309 309 309 310 312
294 293 292 290 290 289 289 289 288 288 287 287 288 287 288 288 288 289 290 289 289 289 289 290 290 291 293 299 302 305 306 306 305 305 304 304 304 305 306 307 308 309 309
293 292 291 290 289 288 288 288 288 287 287 286 288 288 285 287 288 288 288 287 287 288 288 288 288 289 291 294 299 301 302 302 301 301 301 301 302 303 304 305 306 307 308
293 292 291 290 289 289 288 288 288 288 286 285 285 290 284 287 285 286 287 287 287 287 287 287 287 288 289 291 294 295 295 296 297 297 298 298 300 301 302 303 304 305 306
292 292 291 290 289 288 288 287 287 288 287 286 285 285 286 287 286 283 285 286 286 286 286 287 287 287 288 290 292 291 290 292 292 293 294 295 297 298 300 301 302 303 304
291 290 290 289 288 288 288 287 286 286 287 287 286 284 284 284 284 285 284 283 285 285 286 286 286 287 287 288 290 289 288 289 290 291 291 292 294 296 297 299 300 301 302
289 289 289 288 288 288 287 286 287 287 286 286 286 285 285 284 283 283 283 283 284 284 285 285 285 286 287 289 286 285 286 287 288 289 290 291 292 293 295 296 298 299 300
288 287 288 287 287 287 286 286 286 286 285 285 286 285 285 285 284 283 283 281 282 282 283 285 285 286 286 286 284 283 283 285 286 287 289 289 290 291 292 294 295 296 297
289 289 287 287 287 286 285 285 285 285 285 285 285 284 284 284 285 284 284 282 280 280 281 281 284 285 285 284 282 282 282 282 284 287 287 288 289 290 291 293 294 295 295
289 288 287 286 286 285 285 285 284 284 284 285 284 284 284 283 284 284 284 284 285 281 279 280 281 284 283 282 281 282 281 280 283 285 285 286 288 289 290 292 292 293 294
288 287 286 286 285 285 284 284 284 283 283 283 283 283 283 283 283 283 283 283 282 284 282 280 280 282 282 280 280 281 280 280 281 282 284 285 287 288 289 290 290 291 292
287 286 286 285 285 284 284 283 283 283 282 282 282 282 282 282 282 281 282 281 280 280 281 277 279 279 278 278 279 280 280 280 281 281 283 285 287 287 287 288 288 289 290
286 286 285 285 284 283 283 283 282 282 282 281 281 280 280 279 280 280 280 280 280 279 279 278 276 276 277 278 278 278 278 279 280 281 283 285 285 285 286 286 287 287 288
285 285 284 284 283 283 283 283 283 282 281 281 281 280 280 279 279 279 279 279 279 278 278 276 276 276 276 277 277 278 278 279 280 281 282 282 283 284 285 285 286 286 285
285 284 284 284 283 283 282 282 282 282 281 281 281 280 280 279 279 278 278 278 277 276 276 275 274 274 275 276 277 277 277 279 278 279 280 281 282 282 283 284 284 283 283
284 284 283 283 283 282 282 281 281 281 280 280 280 279 280 279 281 280 278 277 276 275 275 274 273 274 275 275 275 277 276 277 278 279 279 279 280 279 280 280 280 281 282
282 283 282 282 282 282 285 286 283 281 280 280 278 278 279 278 280 282 281 280 278 274 273 274 274 273 274 276 276 276 275 275 274 280 278 277 278 277 278 279 280 281 283
282 281 282 282 282 282 286 287 286 281 280 280 279 278 277 277 278 279 282 281 280 280 278 276 274 275 276 276 277 275 275 275 275 278 275 273 277 276 278 278 280 281 282
281 281 281 282 281 282 285 287 286 282 280 279 279 278 277 276 277 278 279 279 278 278 278 277 277 277 278 278 277 278 277 275 274 274 275 271 276 275 277 277 279 280 281
280 281 282 281 281 281 285 286 286 283 279 279 278 278 278 276 278 281 278 277 277 277 281 282 281 280 280 280 280 277 273 271 269 271 274 272 273 273 275 276 277 278 280
279 280 279 280 280 280 283 285 286 284 279 278 277 277 279 277 280 281 278 278 276 276 276 278 278 279 281 279 278 276 273 269 269 268 274 271 272 272 270 274 276 275 276

GFSMA_sfc_thetae_024.txt.gz
Theta_e
314 313 314 313 312 309 305 301 301 300 300 299 299 299 299 299 300 301 305 306 310 313 316 318 319 320 321 324 324 321 321 318 318 319 319 319 320 320 320 322 323 323 324
312 311 311 309 307 304 302 301 300 300 299 299 298 298 298 299 299 300 304 308 310 313 315 318 319 320 322 317 316 319 318 315 313 316 315 315 315 315 317 318 318 318 320
309 308 308 306 303 301 300 300 299 299 298 297 297 297 297 298 299 299 302 308 311 311 316 317 319 321 319 314 314 319 315 312 314 314 312 313 314 316 316 315 315 316 317
308 306 305 303 300 299 299 298 297 297 297 297 296 296 297 298 297 298 300 306 308 310 307 308 309 311 310 310 312 315 311 312 312 310 310 312 313 312 312 312 313 314 315
306 304 304 302 299 298 298 297 297 297 296 296 295 296 297 297 296 297 300 302 301 302 302 298 301 303 304 308 309 309 309 310 309 308 310 309 309 309 310 311 311 312 313
304 303 302 301 298 297 297 297 296 296 297 296 292 293 295 296 296 297 296 297 296 295 296 296 298 299 301 303 305 307 309 308 307 307 306 306 306 306 307 309 310 310 311
304 303 302 300 298 297 297 296 296 294 294 295 294 293 293 294 294 295 295 295 294 293 294 295 296 297 300 302 305 307 307 306 304 303 303 303 304 305 306 307 307 308 309
304 302 301 299 298 297 296 296 295 294 295 294 294 295 291 290 292 293 293 293 293 293 292 292 293 294 297 301 303 303 301 301 301 301 301 301 302 303 304 305 305 306 307
303 301 300 299 298 297 296 296 295 295 293 293 295 296 291 293 291 291 291 292 291 292 292 291 291 292 295 299 299 295 294 295 296 297 298 298 300 301 302 303 304 304 305
302 301 300 300 298 297 297 297 296 296 297 292 292 291 293 295 292 288 290 291 291 290 291 291 291 291 293 295 295 290 290 291 292 293 294 295 297 298 300 301 301 302 303
300 300 299 299 298 297 297 297 295 295 296 296 294 291 291 291 292 294 289 288 290 290 291 290 291 291 291 293 294 289 288 289 290 290 291 293 294 295 297 298 299 300 301
298 298 298 298 297 296 296 296 295 295 295 295 296 293 292 291 290 291 291 290 289 289 290 290 290 291 291 292 289 285 285 287 288 289 290 291 292 293 294 296 297 298 299
296 296 296 295 295 295 296 295 294 294 294 293 295 294 295 295 293 293 293 290 288 287 287 289 290 290 290 292 289 284 283 284 286 287 289 289 290 291 292 294 295 296 297
297 297 296 295 295 295 294 294 293 293 293 293 293 294 293 293 292 292 291 290 286 286 286 286 289 289 290 290 288 283 285 282 284 286 287 288 289 290 291 292 294 295 295
297 296 296 294 295 294 293 292 291 291 291 292 292 293 292 292 292 292 292 293 292 286 284 286 285 288 289 288 287 286 285 283 283 285 286 286 288 289 290 291 292 293 294
295 294 294 293 294 294 292 292 291 291 290 290 290 290 290 291 290 291 290 290 291 292 290 288 286 287 287 285 285 284 284 281 283 284 284 285 287 288 290 290 290 291 292
294 293 294 293 292 292 292 291 290 290 289 289 288 289 288 289 289 289 289 288 287 288 290 283 285 286 285 284 282 283 283 283 284 283 284 285 286 288 288 288 289 290 291
291 292 292 291 291 290 290 289 289 288 288 287 288 287 287 285 287 287 286 286 286 286 287 282 281 282 282 283 282 281 281 281 282 283 284 285 286 286 286 287 287 288 288
289 290 289 289 289 289 289 289 288 288 288 287 287 285 285 285 284 284 284 284 284 283 285 285 280 281 280 281 280 280 281 282 282 282 283 284 284 284 285 286 286 287 287
288 288 288 288 288 288 287 287 286 287 287 286 287 285 285 284 284 283 283 284 283 283 283 283 283 279 279 279 280 280 279 281 281 281 282 282 283 283 284 285 285 284 284
286 286 286 286 286 286 285 285 285 285 286 285 285 284 284 284 285 284 283 284 283 283 281 281 280 278 277 277 277 280 279 281 281 282 281 282 282 283 283 283 283 283 283
285 285 284 284 284 284 286 288 287 284 284 284 283 283 283 283 283 286 286 286 284 282 280 280 280 278 278 278 280 279 279 278 279 283 281 280 282 281 282 282 283 283 283
283 283 283 284 283 284 287 287 288 285 283 284 283 283 282 282 282 283 286 286 284 285 284 282 280 279 279 279 280 278 278 278 278 280 280 277 280 279 281 281 283 283 283
282 282 283 283 283 284 286 287 287 286 285 284 284 283 283 281 281 281 282 282 282 282 282 281 282 281 281 281 281 280 279 279 280 279 278 273 278 278 280 281 282 283 283
280 281 282 282 283 284 285 286 286 285 285 284 283 284 283 282 282 283 281 281 280 280 283 283 282 282 282 282 281 280 277 276 274 275 277 275 276 276 277 279 281 282 281
277 280 281 282 282 282 284 285 285 284 284 284 283 282 282 282 284 283 281 281 279 279 278 279 279 281 282 281 281 280 279 275 274 272 275 273 275 275 273 278 279 279 278

GFSMA_sfc_thetae_030.txt.gz
Theta_e
314 312 311 312 312 308 307 303 298 298 297 296 297 296 296 295 295 296 300 310 314 316 317 319 321 322 322 324 324 321 319 320 320 320 319 319 320 321 320 320 321 322 324
313 311 310 310 310 307 304 300 298 296 296 296 295 296 295 295 295 296 300 305 315 318 317 320 322 324 323 323 323 319 315 318 316 315 316 317 319 317 316 317 318 320 320
312 310 308 308 308 305 302 298 297 296 295 296 294 294 294 294 295 296 298 304 307 312 318 317 319 323 320 318 322 319 313 317 314 315 316 317 314 314 315 316 317 317 318
312 308 307 306 306 302 298 296 294 294 293 293 292 292 292 294 294 295 297 302 306 304 306 312 317 319 317 313 321 317 314 315 312 313 314 311 312 313 312 312 313 314 315
311 307 305 305 303 298 295 295 293 293 292 291 292 291 292 292 293 295 295 300 300 301 298 304 305 306 313 317 315 314 313 312 311 311 310 309 309 309 310 311 312 312 313
310 305 303 303 300 296 294 294 292 293 292 292 292 292 290 292 291 291 294 298 296 294 295 295 295 298 305 307 310 312 312 310 309 308 307 306 307 307 308 308 309 310 311
309 305 301 300 298 296 295 294 293 292 291 291 289 288 289 290 290 291 292 292 292 292 291 292 292 294 298 306 309 311 312 310 307 305 304 304 304 305 306 306 307 308 309
307 305 301 299 296 294 293 294 292 291 291 291 288 287 284 286 288 290 290 291 290 290 290 291 290 291 295 297 302 310 310 307 305 303 302 301 302 303 304 305 305 306 307
306 304 301 298 296 294 294 293 293 292 288 289 291 289 285 284 284 287 288 289 289 288 288 289 290 291 292 296 299 301 303 302 301 300 300 299 300 301 302 303 303 304 305
305 303 301 299 296 294 293 292 293 293 290 289 288 291 289 289 285 281 285 287 287 288 287 287 287 289 291 294 294 294 296 296 297 297 297 297 298 298 300 301 301 302 303
301 302 301 298 297 295 292 292 291 290 291 289 290 286 286 286 287 284 280 282 285 286 287 287 287 287 290 290 288 292 294 295 294 294 294 295 296 296 298 299 299 300 301
297 298 299 298 297 295 292 291 291 290 290 290 290 287 287 286 285 285 284 281 282 284 286 287 287 287 288 290 290 293 292 293 293 293 293 293 293 294 295 296 297 298 299
294 295 295 295 295 295 293 292 290 289 290 290 289 290 288 288 288 287 286 283 282 283 283 285 285 287 289 288 290 290 291 291 292 293 293 293 293 293 294 295 296 296 297
292 293 294 294 294 294 293 291 289 289 289 291 288 288 288 289 289 287 286 284 281 280 281 282 285 287 287 288 287 290 286 290 291 292 293 293 293 293 293 294 295 295 295
292 291 291 291 292 292 292 291 288 288 288 288 290 289 289 288 288 288 287 286 286 279 280 281 281 286 287 288 288 287 283 289 290 291 292 292 292 293 293 293 294 294 295
289 288 288 288 289 290 290 289 288 287 287 287 288 287 288 287 287 287 288 286 286 287 282 282 282 283 287 288 288 284 282 287 289 290 291 291 291 292 292 293 293 293 293
286 287 287 286 287 287 287 287 287 287 286 286 286 285 287 286 289 287 286 286 286 285 284 280 281 282 285 285 285 283 283 282 284 288 290 290 290 291 291 292 292 291 292
284 285 286 285 285 286 285 286 286 287 285 285 285 285 285 287 286 285 286 287 288 285 284 278 279 280 282 284 283 282 281 281 280 285 289 289 290 290 290 291 291 290 290
282 282 283 283 283 284 284 285 285 285 285 285 285 285 286 284 286 286 285 286 286 285 285 279 278 279 279 283 279 279 279 278 280 284 288 289 289 290 290 291 290 289 289
280 280 281 282 282 283 283 284 284 285 285 285 285 286 286 285 285 285 285 285 285 284 286 281 277 278 278 281 281 278 278 280 279 280 284 285 287 288 290 290 289 288 288
280 279 280 280 281 281 283 283 283 284 283 284 284 285 285 285 287 287 285 285 285 285 284 285 281 276 277 279 279 279 278 279 279 279 278 279 281 281 283 288 286 287 287
278 278 278 279 279 280 284 286 286 283 284 284 283 284 284 285 285 289 290 290 288 285 285 284 284 280 279 279 280 279 279 278 275 280 279 278 280 279 281 282 285 287 286
276 277 277 277 277 279 283 284 286 283 283 283 284 284 284 284 284 284 287 290 290 291 290 286 285 284 281 280 280 279 279 280 280 279 280 278 279 279 281 282 286 286 286
275 275 275 276 276 277 282 283 284 282 282 282 283 283 283 284 284 284 284 283 284 286 287 287 286 286 286 282 282 281 281 282 278 279 281 275 280 279 280 280 285 286 286
275 274 275 274 274 275 279 280 281 279 280 281 282 283 283 283 285 287 284 282 282 283 287 290 290 290 290 289 284 282 279 278 272 276 279 277 276 277 278 278 280 286 286
274 274 273 273 273 272 276 278 278 277 277 279 280 282 284 283 286 287 285 284 281 282 283 283 285 288 289 288 286 283 282 278 279 274 278 275 275 276 274 278 278 279 281

GFSMA_sfc_thetae_033.txt.gz
Theta_e
318 310 310 311 308 307 305 302 299 296 295 295 295 295 294 294 294 298 298 311 315 317 320 321 322 323 324 325 325 321 322 322 321 320 319 319 320 319 319 319 321 323 327
317 311 310 310 309 306 304 301 296 295 294 294 294 294 293 293 294 295 300 305 316 318 318 322 323 324 325 327 324 319 317 318 315 316 317 318 318 315 316 317 318 320 321
317 311 308 308 309 306 302 297 295 294 293 294 293 293 293 293 293 295 299 304 305 313 319 320 323 326 324 323 324 319 315 317 314 316 317 316 313 314 315 316 316 317 316
316 312 307 307 306 303 300 295 294 293 292 292 290 291 291 292 293 294 296 302 303 302 308 313 319 324 320 319 323 319 318 316 313 314 313 312 312 312 311 312 313 314 314
313 309 306 305 304 300 296 295 292 292 290 290 290 290 290 291 291 294 294 299 302 299 299 306 306 308 317 318 322 318 317 314 313 312 311 310 309 310 311 311 312 312 313
310 306 304 304 301 297 294 293 291 290 290 290 292 290 289 290 290 289 292 297 295 297 297 295 295 298 309 316 316 317 316 313 313 310 309 308 308 308 308 309 309 310 310
311 304 302 302 298 296 294 292 291 290 289 288 288 287 287 289 289 289 291 293 293 292 292 292 293 294 298 309 313 315 316 314 311 308 307 307 306 306 306 307 307 308 309
310 305 301 299 296 293 292 292 291 289 289 289 286 285 283 285 287 288 289 291 290 290 290 291 290 292 295 297 300 312 314 314 311 308 306 305 305 305 306 306 306 307 307
308 307 303 298 295 294 293 292 291 290 288 288 288 287 283 283 283 286 287 288 289 287 288 289 289 290 292 294 302 306 313 312 310 308 305 304 304 304 304 305 305 305 306
303 303 303 299 296 293 292 291 292 290 289 287 286 290 288 287 283 282 284 286 287 287 286 287 287 288 290 293 297 300 307 307 306 305 303 303 303 303 304 304 304 304 304
300 300 300 298 297 295 292 291 290 289 289 289 287 285 285 286 286 283 281 282 284 285 287 287 286 286 288 292 291 295 302 302 301 301 301 300 301 301 302 303 303 303 303
295 296 297 297 296 294 292 291 290 289 290 289 288 287 286 286 285 284 282 280 281 283 286 286 286 286 287 289 292 294 299 300 299 298 298 298 299 300 301 302 302 302 302
290 291 291 292 293 294 293 291 289 288 288 289 289 289 289 288 287 286 285 281 281 282 282 284 286 286 288 288 289 292 296 298 298 297 296 297 297 297 298 299 300 300 300
289 289 289 289 290 292 293 291 289 288 287 288 289 286 288 289 287 286 286 283 280 280 280 282 283 286 287 287 290 293 290 296 296 296 296 296 296 297 297 298 299 299 298
288 288 288 287 288 288 289 289 288 287 286 287 288 288 288 290 287 289 286 285 288 285 280 281 281 285 287 287 289 290 287 293 295 295 295 296 296 296 296 297 298 298 298
285 285 285 286 286 287 286 286 285 286 285 286 287 286 287 289 286 287 289 286 285 288 286 284 282 282 287 287 288 289 286 289 293 294 294 295 295 295 296 296 297 297 297
283 283 284 284 284 284 285 285 285 285 285 285 285 285 286 287 288 288 285 287 287 284 287 288 282 281 284 285 285 287 285 285 287 292 293 294 294 294 295 295 296 296 296
283 282 283 282 282 283 283 282 283 283 284 284 284 284 285 287 284 287 288 286 287 287 287 287 280 279 281 285 285 285 283 284 283 289 292 293 293 293 294 294 294 294 294
281 282 281 281 280 281 281 282 282 282 282 282 283 284 285 284 284 285 285 285 286 287 285 286 286 279 281 282 280 282 282 282 281 286 291 291 292 292 293 293 293 293 292
280 280 281 281 280 280 280 281 282 281 281 282 283 283 284 285 285 285 285 285 285 285 284 284 286 278 278 280 283 281 278 279 279 281 285 287 289 291 292 292 292 292 291
279 279 279 279 279 279 280 279 281 281 281 282 283 283 283 284 286 287 285 285 284 284 285 283 284 277 277 278 280 281 280 280 279 280 279 281 284 285 287 291 290 291 291
278 278 277 277 277 278 281 283 283 280 281 281 281 282 283 283 284 287 289 290 289 285 283 284 284 284 282 282 281 281 281 278 276 279 278 278 281 281 283 284 289 290 290
278 277 277 277 276 276 280 281 281 280 279 280 280 281 282 283 283 283 286 288 289 290 291 286 284 284 284 283 281 281 280 281 281 279 280 278 279 278 281 282 288 290 290
275 275 276 276 276 276 279 280 280 277 277 278 279 280 281 281 282 282 282 282 283 284 286 287 288 287 287 285 283 283 282 282 281 279 281 277 278 277 280 281 286 289 289
271 271 273 273 273 274 278 278 278 275 275 275 276 277 278 280 283 285 282 282 282 283 286 289 290 291 291 291 286 282 281 279 278 276 279 277 277 278 279 280 282 288 288
267 268 268 269 269 269 273 275 275 273 271 272 274 275 278 278 282 284 282 281 280 282 283 283 284 287 289 288 290 284 282 279 280 278 279 278 277 277 275 279 280 282 284